Find Starlink 35423

NORAD ID: 65873 Int'l Des: 2025-223 Owner: SPXS Country: US Constellation: starlink operational
LEOCIRCULAR

Aktuelle Ansicht

3D-Globus wird geladen...

Über Starlink 35423

Beschreibung wird geladen...

Nächste Überflüge

Passes for default location (London). Set your location on the main map for personalized predictions.

Höhenverlauf

Loading altitude history...

Zweizeiliger Elementsatz

1 65873U 25223V 26146.55565304 .00024539 00000-0 73512-3 0 9999
2 65873 53.1602 292.0395 0001436 27.7178 332.3901 15.34396003 36132
Epoch: 26. Mai 2026 • Age: 10 hours

Aktueller Status

Höhe 466.6 km
Geschwindigkeit 7.64 km/s
Subsatellitenpunkt 40.96°N, 163.6°W
Startdatum 3. Okt. 2025
Alter 0.6 years
Typ internet

Technische Details

Klassifizierung Payload
Masse 575.00 kg
Trockenmasse 530.00 kg
Gesamtmasse 575.00 kg
Länge 0.30 m
Durchmesser 4.10 m
Spannweite 29.00 m
Form Box + pan
Hersteller SPXS
Bus-Typ Starlink V2MO
Phasenstatus In Orbit
Besitzer/Staat SPXS/US

Most Searched